Location: Caltech
(34.1382°N, 118.1253°W)
Time: 00:17:56
(UTC-07:00)

Iridium 65 - Visible Passes

Search period start: 26 March 2017 00:00
Search period end: 05 April 2017 00:00
Orbit: 776 x 779 km, 86.4° (Epoch: 24 March)

Date Brightness Start Highest point End Pass type
(mag) Time Alt. Az. Time Alt. Az. Time Alt. Az.
26 Mar 8.3 04:47:54 10° ESE 04:51:20 18° E 04:54:46 10° NE visible
27 Mar 5.5 05:52:52 10° S 05:58:04 81° W 06:03:18 10° N visible
28 Mar 6.4 05:19:35 10° SSE 05:24:37 51° E 05:29:40 10° NNE visible
29 Mar 7.6 04:46:59 10° SE 04:51:17 27° E 04:55:34 10° NNE visible
30 Mar 8.5 04:15:31 10° ESE 04:18:03 14° E 04:20:35 10° NE visible
30 Mar 5.6 05:53:07 10° SSW 05:58:12 54° W 06:03:19 10° N visible
31 Mar 5.7 05:19:29 10° S 05:24:41 78° E 05:29:54 10° N visible
01 Apr 6.9 04:46:28 10° SSE 04:51:16 39° E 04:56:06 10° NNE visible
02 Apr 7.9 04:14:12 10° SE 04:17:59 21° E 04:21:45 10° NE visible
02 Apr 6.1 05:53:37 10° SSW 05:58:22 36° W 06:03:10 10° NNW visible
03 Apr 8.6 03:44:19 10° E 03:44:48 10° ENE 03:45:18 10° ENE visible
03 Apr 5.4 05:19:36 10° S 05:24:47 71° W 05:30:00 10° N visible
04 Apr 6.0 04:46:13 10° SSE 04:51:18 59° E 04:56:26 10° N visible
